OBJECT A, 63982

Orbit data source: Space-Track

You're viewing an Uncataloged Satellite

Recently launched and/or uncataloged satellites may have evolving metadata. Metadata may include but not limited to: Owner, Maufacturer, Bus, Motor, and Mission.

OBJECT A, 63982 is a Chinese satellite in SSO that was launched on Wed, 14 May 2025 UTC via a CHANG ZHENG 2D launch vehicle from the Jiuquan Satellite Launch Center, China (JSC). Unknown objects in Earth's orbit typically refer to objects detected orbiting the Earth but have not yet been identified or cataloged. These objects could be anything from previously untracked satellites, spent rocket stages, debris from satellite collisions, or even natural meteoroids temporarily captured by Earth's gravity.

Loading next visibility...
Identifier
63982, 2025-100A
Orbit
SSO
Last TLE update
3 hours ago
Origin
Flag of CNCN / PRC
Manufacturer
Unknown
Mission
Operational spacecraft
Bus & Motor
Unknown
Mass
Unknown
Launch date (UTC)
2025-05-14 (1 month ago)
Launch vehicle
CHANG ZHENG 2D
Launch site
Jiuquan Satellite Launch Center, China (JSC)
Object type
Unknown
Shape & HBR
Unknown
Radar Cross Section
Medium (>0.1 m² and <1 m²)

Expand to show TLE details & history

TLE from 3 hours ago
0 OBJECT A
1 63982U 25100A   25175.54508228  .00006703  00000-0  32571-3 0  9997
2 63982  97.4059 250.4725 0010547 171.2241 188.9179 15.18713528  6295
Epoch: 2025-06-24T13:04Z
TLE epoch observation values (Epoch: 2025-06-24T13:04:55.108Z)
Latitude
-0.00014°
Longitude
141.30343°
Altitude
519.995 km
Speed
7.599 km/s
True Right ascension
16h 41m 53s
True Declination
0° 00' 00"
Sunlit
Object was in full shadow at epoch
Visualization orbit readout
Latitude
-33.3314°
Longitude
146.30338°
Altitude
528.999 km
Speed
7.593 km/s
Apparent Right ascension
16h 14m 06s
Apparent Declination
-37° 01' 40"
Sunlit
Object is in full shadow
Visualization observer readout
Local Sidereal Time
03:17:36
Azimuth
280.156° WNW
Elevation
-78.584°
Doppler factor
1
Orbital elements
Apogee altitude
513.957 km
Perigee altitude
499.434 km
Semi-major axis
6,884.832 km
Eccentricity
0.00105
Inclination
97.4059°
RAAN
250.4725°
Arg. of periapsis
171.2241°
True anomaly
Unknown
Mean anomaly
188.9179°
Eccentric anomaly
Unknown
Mean motion
3.7993 °/min
Orbital period
94.75 mins
BSTAR
0.00032571
Loading maneuver chart data...
Loading SW <> Apogee altitude chart data...
Loading historical data...
Loading historical data...
Loading historical data...
Loading historical data...
Loading historical data...
Loading historical data...
Loading historical data...

OBJECT A Visibility forecast

Observer location: undefined°, undefined°

Span
Click to sort rows by Start time (UTC) header in descending order
Start Az.
Max El. time (UTC)
Max El. Az.
Max El.
End time (UTC)
End Az.
5 mins2025-06-24 18:23:49.626Z342.299° N2025-06-24 18:25:49.626Z292° WNW29.46°2025-06-24 18:28:49.626Z224.719° SW
6 mins2025-06-25 05:01:49.626Z165.384° S2025-06-25 05:03:49.626Z159.474° S42.379°2025-06-25 05:07:49.626Z348.973° N
|